status,avgMeasuredTime,avgSpeed,extID,medianMeasuredTime,TIMESTAMP,vehicleCount,_id,REPORT_ID
OK,179,32,967,179,2014-08-01T08:00:00,0,20747022,187191
OK,112,51,967,112,2014-08-01T08:10:00,1,20747844,187191
OK,112,51,967,112,2014-08-01T08:15:00,1,20748293,187191
OK,478,12,967,478,2014-08-01T08:20:00,2,20748742,187191
OK,478,12,967,478,2014-08-01T08:25:00,2,20749191,187191
OK,164,35,967,164,2014-08-01T08:30:00,1,20749640,187191
OK,164,35,967,164,2014-08-01T08:35:00,1,20750089,187191
OK,141,40,967,141,2014-08-01T08:40:00,1,20750538,187191
OK,141,40,967,141,2014-08-01T08:45:00,1,20750987,187191
OK,178,32,967,178,2014-08-01T08:50:00,1,20751436,187191
OK,178,32,967,178,2014-08-01T08:55:00,1,20751885,187191
OK,178,32,967,178,2014-08-01T09:00:00,0,20752334,187191
OK,178,32,967,178,2014-08-01T09:05:00,0,20752783,187191
OK,178,32,967,178,2014-08-01T09:10:00,0,20753232,187191
OK,105,54,967,105,2014-08-01T09:20:00,3,20754130,187191
OK,169,33,967,169,2014-08-01T09:25:00,2,20754579,187191
OK,142,40,967,142,2014-08-01T09:30:00,2,20755028,187191
OK,144,39,967,144,2014-08-01T09:35:00,1,20755477,187191
OK,144,39,967,144,2014-08-01T09:40:00,0,20755926,187191
OK,144,39,967,144,2014-08-01T09:45:00,0,20756375,187191
OK,144,39,967,144,2014-08-01T09:50:00,0,20756824,187191
OK,144,39,967,144,2014-08-01T09:55:00,0,20757273,187191
OK,139,41,967,139,2014-08-01T10:00:00,2,20757722,187191
OK,139,41,967,139,2014-08-01T10:05:00,2,20758171,187191
OK,110,52,967,110,2014-08-01T10:15:00,3,20759069,187191
OK,146,39,967,146,2014-08-01T10:20:00,2,20759518,187191
OK,146,39,967,146,2014-08-01T10:25:00,0,20759967,187191
OK,146,39,967,146,2014-08-01T10:30:00,0,20760416,187191
OK,146,39,967,146,2014-08-01T10:35:00,0,20760865,187191
OK,146,39,967,146,2014-08-01T10:40:00,0,20761314,187191
OK,146,39,967,146,2014-08-01T10:45:00,0,20761763,187191
OK,146,39,967,146,2014-08-01T10:50:00,0,20762212,187191
OK,146,39,967,146,2014-08-01T10:55:00,0,20762661,187191
OK,138,41,967,138,2014-08-01T11:00:00,1,20763110,187191
OK,138,41,967,138,2014-08-01T11:05:00,1,20763559,187191
OK,146,39,967,146,2014-08-01T11:10:00,1,20764008,187191
OK,146,39,967,146,2014-08-01T11:20:00,0,20764905,187191
OK,603,9,967,603,2014-08-01T11:25:00,2,20765354,187191
OK,139,41,967,139,2014-08-01T11:30:00,1,20765803,187191
OK,139,41,967,139,2014-08-01T11:35:00,0,20766252,187191
OK,192,29,967,192,2014-08-01T11:40:00,1,20766701,187191
OK,202,28,967,202,2014-08-01T11:45:00,2,20767150,187191
OK,213,26,967,213,2014-08-01T11:50:00,1,20767599,187191
OK,213,26,967,213,2014-08-01T11:55:00,0,20768048,187191
OK,213,26,967,213,2014-08-01T12:00:00,0,20768497,187191
OK,213,26,967,213,2014-08-01T12:10:00,0,20769395,187191
OK,213,26,967,213,2014-08-01T12:15:00,0,20769844,187191
OK,171,33,967,171,2014-08-01T12:20:00,1,20770293,187191
OK,168,34,967,168,2014-08-01T12:25:00,2,20770742,187191
OK,165,34,967,165,2014-08-01T12:30:00,1,20771191,187191
OK,165,34,967,165,2014-08-01T12:35:00,0,20771640,187191
OK,165,34,967,165,2014-08-01T12:40:00,0,20772089,187191
OK,165,34,967,165,2014-08-01T12:45:00,0,20772538,187191
OK,172,33,967,172,2014-08-01T12:50:00,1,20772987,187191
OK,157,36,967,157,2014-08-01T12:55:00,1,20773436,187191
OK,157,36,967,157,2014-08-01T13:00:00,1,20773885,187191
OK,157,36,967,157,2014-08-01T13:05:00,0,20774334,187191
OK,157,36,967,157,2014-08-01T13:10:00,0,20774783,187191
OK,174,33,967,174,2014-08-01T13:15:00,2,20775232,187191
OK,178,32,967,178,2014-08-01T13:20:00,7,20775681,187191
OK,170,33,967,170,2014-08-01T13:25:00,7,20776130,187191
OK,160,35,967,160,2014-08-01T13:30:00,2,20776579,187191
OK,158,36,967,158,2014-08-01T13:35:00,2,20777028,187191
OK,158,36,967,158,2014-08-01T13:40:00,2,20777477,187191
OK,108,53,967,108,2014-08-01T13:45:00,0,20777926,187191
OK,156,36,967,156,2014-08-01T13:50:00,2,20778375,187191
OK,124,46,967,124,2014-08-01T14:00:00,1,20779273,187191
OK,157,36,967,157,2014-08-01T14:05:00,2,20779722,187191
OK,157,36,967,157,2014-08-01T14:10:00,2,20780171,187191
OK,139,41,967,139,2014-08-01T14:15:00,1,20780620,187191
OK,139,41,967,139,2014-08-01T14:20:00,1,20781069,187191
OK,139,41,967,139,2014-08-01T14:25:00,0,20781518,187191
OK,198,29,967,198,2014-08-01T14:30:00,1,20781967,187191
OK,198,29,967,198,2014-08-01T14:35:00,1,20782416,187191
OK,198,29,967,198,2014-08-01T14:40:00,0,20782865,187191
OK,174,33,967,174,2014-08-01T14:45:00,1,20783314,187191
OK,174,33,967,174,2014-08-01T14:50:00,1,20783763,187191
OK,105,54,967,105,2014-08-01T15:00:00,1,20784661,187191
OK,105,54,967,105,2014-08-01T15:05:00,1,20785110,187191
OK,105,54,967,105,2014-08-01T15:10:00,0,20785559,187191
OK,218,26,967,218,2014-08-01T15:15:00,1,20786008,187191
OK,171,33,967,171,2014-08-01T15:20:00,2,20786457,187191
OK,124,46,967,124,2014-08-01T15:25:00,1,20786906,187191
OK,124,46,967,124,2014-08-01T15:30:00,0,20787355,187191
OK,124,46,967,124,2014-08-01T15:35:00,0,20787804,187191
OK,124,46,967,124,2014-08-01T15:40:00,0,20788253,187191
OK,206,27,967,206,2014-08-01T15:45:00,1,20788702,187191
OK,206,27,967,206,2014-08-01T15:50:00,1,20789151,187191
OK,206,27,967,206,2014-08-01T15:55:00,0,20789600,187191
OK,133,43,967,133,2014-08-01T16:00:00,1,20790049,187191
OK,133,43,967,133,2014-08-01T16:05:00,1,20790498,187191
OK,133,43,967,133,2014-08-01T16:10:00,0,20790947,187191
OK,133,43,967,133,2014-08-01T16:15:00,0,20791396,187191
OK,133,43,967,133,2014-08-01T16:20:00,0,20791845,187191
OK,133,43,967,133,2014-08-01T16:25:00,0,20792294,187191
OK,133,43,967,133,2014-08-01T16:30:00,0,20792743,187191
OK,214,26,967,214,2014-08-01T16:35:00,1,20793192,187191
OK,214,26,967,214,2014-08-01T16:40:00,1,20793641,187191
OK,214,26,967,214,2014-08-01T16:45:00,0,20794090,187191
OK,214,26,967,214,2014-08-01T16:50:00,0,20794539,187191
OK,155,37,967,155,2014-08-01T16:55:00,1,20794988,187191
OK,155,37,967,155,2014-08-01T17:00:00,0,20795437,187191
OK,114,50,967,114,2014-08-01T17:05:00,1,20795886,187191
OK,114,50,967,114,2014-08-01T17:10:00,1,20796335,187191
OK,114,50,967,114,2014-08-01T17:15:00,0,20796784,187191
OK,114,50,967,114,2014-08-01T17:20:00,0,20797233,187191
OK,114,50,967,114,2014-08-01T17:25:00,0,20797682,187191
OK,114,50,967,114,2014-08-01T17:30:00,0,20798131,187191
OK,134,42,967,134,2014-08-01T17:35:00,1,20798580,187191
OK,125,45,967,125,2014-08-01T17:40:00,2,20799029,187191
OK,116,49,967,116,2014-08-01T17:45:00,1,20799478,187191
OK,116,49,967,116,2014-08-01T17:50:00,0,20799927,187191
OK,116,49,967,116,2014-08-01T17:55:00,0,20800376,187191
OK,116,49,967,116,2014-08-01T18:00:00,0,20800825,187191
OK,116,49,967,116,2014-08-01T18:05:00,0,20801274,187191
OK,116,49,967,116,2014-08-01T18:10:00,0,20801723,187191
OK,116,49,967,116,2014-08-01T18:15:00,0,20802172,187191
OK,116,49,967,116,2014-08-01T18:20:00,0,20802621,187191
OK,116,49,967,116,2014-08-01T18:25:00,0,20803070,187191
OK,139,41,967,139,2014-08-01T18:30:00,1,20803519,187191
OK,110,52,967,110,2014-08-01T18:35:00,1,20803968,187191
OK,130,44,967,130,2014-08-01T18:40:00,2,20804417,187191
OK,146,39,967,146,2014-08-01T18:45:00,2,20804866,187191
OK,142,40,967,142,2014-08-01T18:50:00,0,20805315,187191
OK,142,40,967,142,2014-08-01T18:55:00,0,20805764,187191
OK,142,40,967,142,2014-08-01T19:00:00,0,20806213,187191
OK,142,40,967,142,2014-08-01T19:05:00,0,20806662,187191
OK,142,40,967,142,2014-08-01T19:10:00,0,20807111,187191
OK,142,40,967,142,2014-08-01T19:15:00,0,20807560,187191
OK,142,40,967,142,2014-08-01T19:20:00,0,20808009,187191
OK,142,40,967,142,2014-08-01T19:25:00,0,20808458,187191
OK,142,40,967,142,2014-08-01T19:30:00,0,20808907,187191
OK,142,40,967,142,2014-08-01T19:35:00,0,20809356,187191
OK,142,40,967,142,2014-08-01T19:40:00,0,20809805,187191
OK,142,40,967,142,2014-08-01T19:45:00,0,20810254,187191
OK,142,40,967,142,2014-08-01T19:50:00,0,20810703,187191
OK,142,40,967,142,2014-08-01T19:55:00,0,20811152,187191
OK,142,40,967,142,2014-08-01T22:00:00,0,20816881,187191
OK,142,40,967,142,2014-08-02T00:00:00,0,20823320,187191
OK,142,40,967,142,2014-08-02T00:05:00,0,20823769,187191
OK,142,40,967,142,2014-08-02T00:10:00,0,20824218,187191
OK,142,40,967,142,2014-08-02T00:15:00,0,20824667,187191
OK,142,40,967,142,2014-08-02T00:20:00,0,20825116,187191
OK,142,40,967,142,2014-08-02T00:25:00,0,20825565,187191
OK,142,40,967,142,2014-08-02T00:30:00,0,20826014,187191
OK,142,40,967,142,2014-08-02T00:35:00,0,20826463,187191
OK,142,40,967,142,2014-08-02T00:40:00,0,20826912,187191
OK,142,40,967,142,2014-08-02T00:45:00,0,20827361,187191
OK,142,40,967,142,2014-08-02T00:50:00,0,20827810,187191
OK,142,40,967,142,2014-08-02T00:55:00,0,20828259,187191
OK,142,40,967,142,2014-08-02T01:00:00,0,20828708,187191
OK,142,40,967,142,2014-08-02T01:05:00,0,20829157,187191
OK,142,40,967,142,2014-08-02T01:10:00,0,20829606,187191
OK,142,40,967,142,2014-08-02T01:15:00,0,20830055,187191
OK,142,40,967,142,2014-08-02T01:20:00,0,20830504,187191
OK,142,40,967,142,2014-08-02T01:25:00,0,20830953,187191
OK,142,40,967,142,2014-08-02T01:30:00,0,20831402,187191
OK,142,40,967,142,2014-08-02T01:35:00,0,20831851,187191
OK,142,40,967,142,2014-08-02T01:40:00,0,20832300,187191
OK,142,40,967,142,2014-08-02T01:45:00,0,20832749,187191
OK,142,40,967,142,2014-08-02T01:50:00,0,20833198,187191
OK,142,40,967,142,2014-08-02T01:55:00,0,20833647,187191
OK,142,40,967,142,2014-08-02T02:00:00,0,20834096,187191
OK,142,40,967,142,2014-08-02T02:05:00,0,20834545,187191
OK,142,40,967,142,2014-08-02T02:10:00,0,20834994,187191
OK,142,40,967,142,2014-08-02T02:15:00,0,20835443,187191
OK,142,40,967,142,2014-08-02T02:20:00,0,20835892,187191
OK,142,40,967,142,2014-08-02T02:25:00,0,20836341,187191
OK,142,40,967,142,2014-08-02T02:30:00,0,20836790,187191
OK,142,40,967,142,2014-08-02T02:35:00,0,20837239,187191
OK,142,40,967,142,2014-08-02T02:40:00,0,20837688,187191
OK,142,40,967,142,2014-08-02T02:45:00,0,20838137,187191
OK,142,40,967,142,2014-08-02T02:50:00,0,20838586,187191
OK,142,40,967,142,2014-08-02T02:55:00,0,20839035,187191
OK,142,40,967,142,2014-08-02T03:00:00,0,20839484,187191
OK,142,40,967,142,2014-08-02T03:05:00,0,20839933,187191
OK,142,40,967,142,2014-08-02T03:10:00,0,20840382,187191
OK,142,40,967,142,2014-08-02T03:15:00,0,20840831,187191
OK,142,40,967,142,2014-08-02T03:20:00,0,20841280,187191
OK,142,40,967,142,2014-08-02T03:25:00,0,20841729,187191
OK,142,40,967,142,2014-08-02T03:30:00,0,20842178,187191
OK,142,40,967,142,2014-08-02T03:35:00,0,20842627,187191
OK,142,40,967,142,2014-08-02T03:40:00,0,20843076,187191
OK,142,40,967,142,2014-08-02T03:45:00,0,20843525,187191
OK,142,40,967,142,2014-08-02T03:50:00,0,20843974,187191
OK,142,40,967,142,2014-08-02T03:55:00,0,20844423,187191
OK,142,40,967,142,2014-08-02T06:00:00,0,20851877,187191
OK,142,40,967,142,2014-08-02T06:05:00,0,20852326,187191
OK,142,40,967,142,2014-08-02T06:10:00,0,20852775,187191
OK,142,40,967,142,2014-08-02T06:15:00,0,20853224,187191
OK,142,40,967,142,2014-08-02T06:20:00,0,20853673,187191
OK,142,40,967,142,2014-08-02T06:25:00,0,20854122,187191
OK,142,40,967,142,2014-08-02T06:30:00,0,20854571,187191
OK,142,40,967,142,2014-08-02T06:35:00,0,20855020,187191
OK,142,40,967,142,2014-08-02T06:40:00,0,20855469,187191
OK,142,40,967,142,2014-08-02T06:45:00,0,20855918,187191
OK,142,40,967,142,2014-08-02T06:50:00,0,20856367,187191
OK,142,40,967,142,2014-08-02T06:55:00,0,20856816,187191
OK,142,40,967,142,2014-08-02T07:00:00,0,20857265,187191
OK,142,40,967,142,2014-08-02T07:05:00,0,20857714,187191
OK,122,47,967,122,2014-08-02T07:10:00,2,20858163,187191
OK,153,37,967,153,2014-08-02T07:15:00,3,20858612,187191
OK,156,36,967,156,2014-08-02T07:20:00,2,20859061,187191
OK,156,36,967,156,2014-08-02T07:25:00,0,20859510,187191
OK,156,36,967,156,2014-08-02T07:30:00,0,20859959,187191
OK,170,33,967,170,2014-08-02T07:35:00,1,20860408,187191
OK,170,33,967,170,2014-08-02T07:40:00,1,20860857,187191
OK,170,33,967,170,2014-08-02T07:45:00,0,20861306,187191
OK,170,33,967,170,2014-08-02T07:50:00,0,20861755,187191
OK,170,33,967,170,2014-08-02T07:55:00,0,20862204,187191
OK,170,33,967,170,2014-08-02T08:00:00,0,20862653,187191
OK,170,33,967,170,2014-08-02T08:05:00,0,20863102,187191
OK,109,52,967,109,2014-08-02T08:10:00,1,20863551,187191
OK,109,52,967,109,2014-08-02T08:15:00,0,20864000,187191
OK,109,52,967,109,2014-08-02T08:20:00,0,20864449,187191
OK,109,52,967,109,2014-08-02T08:25:00,0,20864898,187191
OK,109,52,967,109,2014-08-02T08:30:00,0,20865347,187191
OK,102,56,967,102,2014-08-02T08:35:00,1,20865796,187191
OK,102,56,967,102,2014-08-02T08:40:00,1,20866245,187191
OK,102,56,967,102,2014-08-02T08:45:00,0,20866694,187191
OK,102,56,967,102,2014-08-02T08:50:00,0,20867143,187191
OK,144,39,967,144,2014-08-02T08:55:00,1,20867592,187191
OK,121,47,967,121,2014-08-02T09:00:00,2,20868041,187191
OK,97,59,967,97,2014-08-02T09:05:00,2,20868490,187191
OK,134,42,967,134,2014-08-02T09:10:00,3,20868939,187191
OK,135,42,967,135,2014-08-02T09:15:00,2,20869388,187191
OK,135,42,967,135,2014-08-02T09:20:00,0,20869837,187191
OK,135,42,967,135,2014-08-02T09:25:00,0,20870286,187191
OK,109,52,967,109,2014-08-02T09:30:00,2,20870735,187191
OK,125,45,967,125,2014-08-02T09:35:00,3,20871184,187191
OK,128,44,967,128,2014-08-02T09:40:00,4,20871633,187191
OK,107,53,967,107,2014-08-02T09:45:00,3,20872082,187191
OK,154,37,967,154,2014-08-02T09:50:00,1,20872531,187191
OK,134,42,967,134,2014-08-02T09:55:00,3,20872980,187191
OK,126,45,967,126,2014-08-02T10:00:00,2,20873429,187191
OK,126,45,967,126,2014-08-02T10:05:00,0,20873878,187191
OK,126,45,967,126,2014-08-02T10:10:00,0,20874327,187191
OK,126,45,967,126,2014-08-02T10:15:00,0,20874776,187191
OK,109,52,967,109,2014-08-02T10:20:00,1,20875225,187191
OK,120,47,967,120,2014-08-02T10:25:00,4,20875674,187191
OK,132,43,967,132,2014-08-02T10:30:00,3,20876123,187191
OK,183,31,967,183,2014-08-02T10:35:00,1,20876572,187191
OK,183,31,967,183,2014-08-02T10:40:00,1,20877021,187191
OK,183,31,967,183,2014-08-02T10:45:00,0,20877470,187191
OK,183,31,967,183,2014-08-02T10:50:00,0,20877919,187191
OK,166,34,967,166,2014-08-02T10:55:00,1,20878368,187191
OK,166,34,967,166,2014-08-02T11:00:00,1,20878817,187191
OK,273,21,967,273,2014-08-02T11:05:00,3,20879266,187191
OK,273,21,967,273,2014-08-02T11:10:00,3,20879715,187191
OK,303,18,967,303,2014-08-02T11:15:00,0,20880164,187191
OK,303,18,967,303,2014-08-02T11:20:00,0,20880613,187191
OK,303,18,967,303,2014-08-02T11:25:00,0,20881062,187191
OK,415,13,967,415,2014-08-02T11:30:00,1,20881511,187191
OK,415,13,967,415,2014-08-02T11:35:00,0,20881960,187191
OK,155,37,967,155,2014-08-02T11:40:00,1,20882409,187191
OK,155,37,967,155,2014-08-02T11:45:00,1,20882858,187191
OK,155,37,967,155,2014-08-02T11:50:00,0,20883307,187191
OK,155,37,967,155,2014-08-02T11:55:00,0,20883756,187191
OK,106,54,967,106,2014-08-02T12:00:00,1,20884205,187191
OK,106,54,967,106,2014-08-02T12:05:00,1,20884654,187191
OK,146,39,967,146,2014-08-02T12:10:00,1,20885103,187191
OK,146,39,967,146,2014-08-02T12:15:00,1,20885552,187191
OK,146,39,967,146,2014-08-02T12:20:00,0,20886001,187191
OK,146,39,967,146,2014-08-02T12:25:00,0,20886450,187191
OK,146,39,967,146,2014-08-02T12:30:00,0,20886899,187191
OK,103,55,967,103,2014-08-02T12:35:00,1,20887348,187191
OK,103,55,967,103,2014-08-02T12:40:00,1,20887797,187191
OK,164,35,967,164,2014-08-02T12:45:00,1,20888246,187191
OK,164,35,967,164,2014-08-02T12:50:00,1,20888695,187191
OK,145,39,967,145,2014-08-02T12:55:00,2,20889144,187191
OK,145,39,967,145,2014-08-02T13:00:00,2,20889593,187191
OK,147,39,967,147,2014-08-02T13:05:00,2,20890042,187191
OK,147,39,967,147,2014-08-02T13:10:00,2,20890491,187191
OK,147,39,967,147,2014-08-02T13:15:00,0,20890940,187191
OK,147,39,967,147,2014-08-02T13:20:00,0,20891389,187191
OK,147,39,967,147,2014-08-02T13:25:00,0,20891838,187191
OK,147,39,967,147,2014-08-02T13:30:00,0,20892287,187191
OK,202,28,967,202,2014-08-02T13:35:00,1,20892736,187191
OK,133,43,967,133,2014-08-02T13:40:00,4,20893185,187191
OK,115,49,967,115,2014-08-02T13:45:00,3,20893634,187191
OK,134,42,967,134,2014-08-02T13:50:00,1,20894083,187191
OK,126,45,967,126,2014-08-02T13:55:00,2,20894532,187191
OK,114,50,967,114,2014-08-02T14:00:00,2,20894981,187191
OK,128,44,967,128,2014-08-02T14:05:00,4,20895430,187191
OK,147,39,967,147,2014-08-02T14:10:00,3,20895879,187191
OK,92,62,967,92,2014-08-02T14:15:00,1,20896328,187191
OK,92,62,967,92,2014-08-02T14:20:00,0,20896777,187191
OK,92,62,967,92,2014-08-02T14:25:00,0,20897226,187191
OK,92,62,967,92,2014-08-02T14:30:00,0,20897675,187191
OK,92,62,967,92,2014-08-02T14:35:00,0,20898124,187191
OK,92,62,967,92,2014-08-02T14:40:00,0,20898573,187191
OK,92,62,967,92,2014-08-02T14:45:00,0,20899022,187191
OK,92,62,967,92,2014-08-02T14:50:00,0,20899471,187191
OK,166,34,967,166,2014-08-02T14:55:00,1,20899920,187191
OK,166,34,967,166,2014-08-02T15:00:00,1,20900369,187191
OK,166,34,967,166,2014-08-02T15:05:00,0,20900818,187191
OK,166,34,967,166,2014-08-02T15:10:00,0,20901267,187191
OK,166,34,967,166,2014-08-02T15:15:00,0,20901716,187191
OK,166,34,967,166,2014-08-02T15:20:00,0,20902165,187191
OK,160,35,967,160,2014-08-02T15:25:00,1,20902614,187191
OK,160,35,967,160,2014-08-02T15:30:00,1,20903063,187191
OK,160,35,967,160,2014-08-02T15:35:00,0,20903512,187191
OK,160,35,967,160,2014-08-02T15:40:00,0,20903961,187191
OK,160,35,967,160,2014-08-02T15:45:00,0,20904410,187191
OK,160,35,967,160,2014-08-02T15:50:00,0,20904859,187191
OK,160,35,967,160,2014-08-02T15:55:00,0,20905308,187191
OK,160,35,967,160,2014-08-02T16:00:00,0,20905757,187191
OK,160,35,967,160,2014-08-02T16:05:00,0,20906206,187191
OK,159,36,967,159,2014-08-02T16:10:00,1,20906655,187191
OK,143,40,967,143,2014-08-02T16:15:00,2,20907104,187191
OK,113,50,967,113,2014-08-02T16:20:00,2,20907553,187191
OK,99,58,967,99,2014-08-02T16:25:00,1,20908002,187191
OK,99,58,967,99,2014-08-02T16:30:00,0,20908451,187191
OK,99,58,967,99,2014-08-02T16:35:00,0,20908900,187191
OK,99,58,967,99,2014-08-02T16:40:00,0,20909349,187191
OK,99,58,967,99,2014-08-02T16:45:00,0,20909798,187191
OK,99,58,967,99,2014-08-02T16:50:00,0,20910247,187191
OK,143,40,967,143,2014-08-02T16:55:00,1,20910696,187191
OK,143,40,967,143,2014-08-02T17:00:00,1,20911145,187191
OK,143,40,967,143,2014-08-02T17:05:00,0,20911594,187191
OK,143,40,967,143,2014-08-02T17:10:00,0,20912043,187191
OK,143,40,967,143,2014-08-02T17:15:00,0,20912492,187191
OK,139,41,967,139,2014-08-02T17:20:00,2,20912941,187191
OK,149,38,967,149,2014-08-02T17:25:00,1,20913390,187191
OK,149,38,967,149,2014-08-02T17:30:00,0,20913839,187191
OK,179,32,967,179,2014-08-02T17:35:00,1,20914288,187191
OK,179,32,967,179,2014-08-02T17:40:00,0,20914737,187191
OK,179,32,967,179,2014-08-02T17:45:00,0,20915186,187191
OK,179,32,967,179,2014-08-02T17:50:00,0,20915635,187191
OK,179,32,967,179,2014-08-02T17:55:00,0,20916084,187191
OK,163,35,967,163,2014-08-02T18:00:00,2,20916533,187191
OK,163,35,967,163,2014-08-02T18:05:00,2,20916982,187191
OK,163,35,967,163,2014-08-02T18:10:00,0,20917431,187191
OK,163,35,967,163,2014-08-02T18:15:00,0,20917880,187191
OK,163,35,967,163,2014-08-02T18:20:00,0,20918329,187191
OK,163,35,967,163,2014-08-02T18:25:00,0,20918778,187191
OK,163,35,967,163,2014-08-02T18:30:00,0,20919227,187191
OK,163,35,967,163,2014-08-02T18:35:00,0,20919676,187191
OK,189,30,967,189,2014-08-02T18:40:00,1,20920125,187191
OK,189,30,967,189,2014-08-02T18:45:00,0,20920574,187191
OK,189,30,967,189,2014-08-02T18:50:00,0,20921023,187191
OK,189,30,967,189,2014-08-02T18:55:00,0,20921472,187191
OK,129,44,967,129,2014-08-02T19:00:00,2,20921921,187191
OK,129,44,967,129,2014-08-02T19:05:00,2,20922370,187191
OK,129,44,967,129,2014-08-02T19:10:00,0,20922819,187191
OK,129,44,967,129,2014-08-02T19:15:00,0,20923268,187191
OK,115,49,967,115,2014-08-02T19:20:00,1,20923717,187191
OK,129,44,967,129,2014-08-02T19:25:00,4,20924166,187191
OK,143,40,967,143,2014-08-02T19:30:00,3,20924615,187191
OK,147,39,967,147,2014-08-02T19:35:00,0,20925064,187191
OK,147,39,967,147,2014-08-02T19:40:00,0,20925513,187191
OK,147,39,967,147,2014-08-02T19:45:00,0,20925962,187191
OK,147,39,967,147,2014-08-02T19:50:00,0,20926411,187191
OK,147,39,967,147,2014-08-02T19:55:00,0,20926860,187191
OK,147,39,967,147,2014-08-02T20:00:00,0,20927309,187191
OK,147,39,967,147,2014-08-02T20:05:00,0,20927758,187191
OK,147,39,967,147,2014-08-02T20:10:00,0,20928207,187191
OK,147,39,967,147,2014-08-02T20:15:00,0,20928656,187191
OK,147,39,967,147,2014-08-02T20:20:00,0,20929105,187191
OK,147,39,967,147,2014-08-02T20:25:00,0,20929554,187191
OK,147,39,967,147,2014-08-02T20:30:00,0,20930003,187191
OK,147,39,967,147,2014-08-02T20:35:00,0,20930452,187191
OK,112,51,967,112,2014-08-02T20:40:00,1,20930901,187191
OK,112,51,967,112,2014-08-02T20:45:00,1,20931350,187191
OK,112,51,967,112,2014-08-02T20:50:00,0,20931799,187191
OK,112,51,967,112,2014-08-02T20:55:00,0,20932248,187191
OK,100,57,967,100,2014-08-02T21:00:00,1,20932697,187191
OK,83,69,967,83,2014-08-02T21:05:00,1,20933146,187191
OK,108,53,967,108,2014-08-02T21:10:00,2,20933595,187191
OK,134,42,967,134,2014-08-02T21:15:00,1,20934044,187191
OK,134,42,967,134,2014-08-02T21:20:00,0,20934493,187191
OK,134,42,967,134,2014-08-02T21:25:00,0,20934942,187191
OK,134,42,967,134,2014-08-02T21:30:00,0,20935391,187191
OK,134,42,967,134,2014-08-02T21:35:00,0,20935840,187191
OK,134,42,967,134,2014-08-02T21:40:00,0,20936289,187191
OK,134,42,967,134,2014-08-02T21:45:00,0,20936738,187191
OK,134,42,967,134,2014-08-02T21:50:00,0,20937187,187191
OK,134,42,967,134,2014-08-02T21:55:00,0,20937636,187191
OK,134,42,967,134,2014-08-02T22:00:00,0,20938085,187191
OK,134,42,967,134,2014-08-02T22:05:00,0,20938534,187191
OK,134,42,967,134,2014-08-02T22:10:00,0,20938983,187191
OK,134,42,967,134,2014-08-02T22:15:00,0,20939432,187191
OK,134,42,967,134,2014-08-02T22:20:00,0,20939881,187191
OK,137,41,967,137,2014-08-02T22:25:00,1,20940330,187191
OK,137,41,967,137,2014-08-02T22:30:00,1,20940779,187191
OK,137,41,967,137,2014-08-02T22:35:00,0,20941228,187191
OK,137,41,967,137,2014-08-02T22:40:00,0,20941677,187191
OK,137,41,967,137,2014-08-02T22:45:00,0,20942126,187191
OK,137,41,967,137,2014-08-02T22:50:00,0,20942575,187191
OK,137,41,967,137,2014-08-02T22:55:00,0,20943024,187191
OK,137,41,967,137,2014-08-02T23:00:00,0,20943473,187191
OK,137,41,967,137,2014-08-02T23:10:00,0,20943922,187191
OK,137,41,967,137,2014-08-02T23:15:00,0,20944371,187191
OK,137,41,967,137,2014-08-02T23:20:00,0,20944820,187191
OK,137,41,967,137,2014-08-02T23:25:00,0,20945269,187191
OK,137,41,967,137,2014-08-02T23:30:00,0,20945718,187191
OK,137,41,967,137,2014-08-02T23:35:00,0,20946167,187191
OK,108,53,967,108,2014-08-02T23:40:00,1,20946616,187191
OK,108,53,967,108,2014-08-02T23:45:00,0,20947065,187191
OK,108,53,967,108,2014-08-02T23:50:00,0,20947514,187191
OK,108,53,967,108,2014-08-02T23:55:00,0,20947963,187191
OK,108,53,967,108,2014-08-03T00:00:00,0,20948412,187191
OK,108,53,967,108,2014-08-03T00:05:00,0,20948861,187191
OK,108,53,967,108,2014-08-03T00:10:00,0,20949309,187191
OK,108,53,967,108,2014-08-03T00:15:00,0,20949758,187191
OK,108,53,967,108,2014-08-03T00:20:00,0,20950207,187191
OK,108,53,967,108,2014-08-03T00:25:00,0,20950656,187191
OK,108,53,967,108,2014-08-03T00:30:00,0,20951105,187191
OK,108,53,967,108,2014-08-03T00:35:00,0,20951554,187191
OK,108,53,967,108,2014-08-03T00:40:00,0,20952003,187191
OK,108,53,967,108,2014-08-03T00:45:00,0,20952452,187191
OK,108,53,967,108,2014-08-03T00:50:00,0,20952901,187191
OK,92,62,967,92,2014-08-03T00:55:00,1,20953350,187191
OK,92,62,967,92,2014-08-03T01:00:00,0,20953799,187191
OK,92,62,967,92,2014-08-03T01:05:00,0,20954248,187191
OK,103,55,967,103,2014-08-03T01:10:00,1,20954697,187191
OK,103,55,967,103,2014-08-03T01:15:00,0,20955146,187191
OK,103,55,967,103,2014-08-03T01:20:00,0,20955595,187191
OK,103,55,967,103,2014-08-03T01:25:00,0,20956044,187191
OK,103,55,967,103,2014-08-03T01:30:00,0,20956493,187191